N628WK KHHR-KAVX

Flight info

Callsign N628WK
Flight time N/A
Altitude 4000
Route SXC
Aircraft EVOT/L-VGD/C

Departure

Time 2026-05-09 15:49
Airport Jack Northrop Field Hawthorne Municipal Airport (KHHR)

Arrival

Time N/A
Airport Catalina Airport (KAVX)
Time Latitude Longitude Altitude Speed Heading
2026-05-09 15:45 33.92254 -118.32834 65 ft 0 kts 358°
2026-05-09 15:47 33.92277 -118.32790 65 ft 15 kts 86°
2026-05-09 15:47 33.92289 -118.32719 65 ft 1 kts
2026-05-09 15:48 33.92290 -118.32719 65 ft 1 kts 355°
2026-05-09 15:49 33.92318 -118.32758 65 ft 15 kts 267°
2026-05-09 15:49 33.92300 -118.33157 66 ft 91 kts 264°
2026-05-09 15:49 33.92283 -118.34078 361 ft 123 kts 264°
2026-05-09 15:49 33.91994 -118.35126 844 ft 146 kts 230°
2026-05-09 15:50 33.91179 -118.35983 1323 ft 167 kts 218°
2026-05-09 15:50 33.90242 -118.36884 1795 ft 182 kts 218°
2026-05-09 15:50 33.89191 -118.37863 2179 ft 199 kts 217°
2026-05-09 15:50 33.88043 -118.38910 2583 ft 210 kts 217°
2026-05-09 15:51 33.86863 -118.39967 2978 ft 218 kts 217°
2026-05-09 15:51 33.85626 -118.41067 3378 ft 223 kts 217°
2026-05-09 15:51 33.84330 -118.42226 3909 ft 243 kts 217°
2026-05-09 15:51 33.82938 -118.43459 4657 ft 254 kts 217°
2026-05-09 15:52 33.79967 -118.46050 4958 ft 255 kts 217°
2026-05-09 15:52 33.78543 -118.47270 4961 ft 245 kts 217°
2026-05-09 15:52 33.77146 -118.48468 4969 ft 252 kts 217°
2026-05-09 15:53 33.75702 -118.49709 4961 ft 257 kts 217°
2026-05-09 15:53 33.74230 -118.50970 4961 ft 260 kts 217°
2026-05-09 15:53 33.72735 -118.52249 4962 ft 262 kts 217°
2026-05-09 15:53 33.71256 -118.53522 4965 ft 263 kts 217°
2026-05-09 15:54 33.69776 -118.54797 4962 ft 264 kts 217°
2026-05-09 15:54 33.68272 -118.56093 4960 ft 264 kts 217°
2026-05-09 15:54 33.66786 -118.57375 4960 ft 264 kts 217°
2026-05-09 15:54 33.65293 -118.58662 4956 ft 264 kts 217°
2026-05-09 15:55 33.63793 -118.59953 4959 ft 264 kts 217°
2026-05-09 15:55 33.62291 -118.61247 4957 ft 265 kts 217°
2026-05-09 15:55 33.60800 -118.62527 4951 ft 265 kts 217°
2026-05-09 15:55 33.59296 -118.63818 4952 ft 264 kts 217°
2026-05-09 15:56 33.57769 -118.65067 4936 ft 258 kts 209°
2026-05-09 15:56 33.56147 -118.65356 4915 ft 223 kts 170°
2026-05-09 15:56 33.54754 -118.64796 4945 ft 203 kts 154°
2026-05-09 15:56 33.53617 -118.63851 4952 ft 197 kts 138°
2026-05-09 15:57 33.52660 -118.62738 4953 ft 183 kts 133°
2026-05-09 15:57 33.51849 -118.61686 4951 ft 161 kts 131°
2026-05-09 15:57 33.51144 -118.60738 4887 ft 146 kts 130°
2026-05-09 15:57 33.50453 -118.59795 4507 ft 157 kts 130°
2026-05-09 15:58 33.49723 -118.58795 4158 ft 161 kts 130°
2026-05-09 15:58 33.48973 -118.57764 3809 ft 165 kts 130°
2026-05-09 15:58 33.48218 -118.56725 3462 ft 167 kts 129°
2026-05-09 15:58 33.47467 -118.55690 3293 ft 160 kts 129°
2026-05-09 15:59 33.46766 -118.54725 3269 ft 153 kts 128°
2026-05-09 15:59 33.46048 -118.53735 3269 ft 160 kts 129°
2026-05-09 15:59 33.45306 -118.52713 3267 ft 164 kts 129°
2026-05-09 15:59 33.44558 -118.51686 3268 ft 162 kts 129°
2026-05-09 16:00 33.43821 -118.50671 3264 ft 160 kts 129°
2026-05-09 16:00 33.43568 -118.50324 3265 ft 159 kts 129°
2026-05-09 16:00 33.42366 -118.48673 3258 ft 157 kts 129°
2026-05-09 16:00 33.41641 -118.47678 3259 ft 156 kts 129°
2026-05-09 16:01 33.40936 -118.46709 3259 ft 155 kts 129°
2026-05-09 16:01 33.40229 -118.45743 3258 ft 153 kts 129°
2026-05-09 16:01 33.39526 -118.44778 3259 ft 152 kts 129°
2026-05-09 16:01 33.38840 -118.43826 3259 ft 151 kts 125°
2026-05-09 16:02 33.38573 -118.42671 3261 ft 145 kts 81°
2026-05-09 16:02 33.39949 -118.41340 3261 ft 138 kts 353°
2026-05-09 16:02 33.40907 -118.41518 3196 ft 143 kts 351°
2026-05-09 16:03 33.41873 -118.41704 3086 ft 137 kts 352°
2026-05-09 16:03 33.42768 -118.41922 3052 ft 124 kts 342°
2026-05-09 16:03 33.43610 -118.42050 2794 ft 129 kts 34°
2026-05-09 16:03 33.44172 -118.41213 2698 ft 133 kts 45°
2026-05-09 16:04 33.44770 -118.40417 2558 ft 131 kts 53°
2026-05-09 16:04 33.44521 -118.39521 2236 ft 143 kts 163°
2026-05-09 16:04 33.43553 -118.39274 2347 ft 148 kts 166°
2026-05-09 16:04 33.42542 -118.39307 2646 ft 136 kts 200°
2026-05-09 16:05 33.41730 -118.39732 2473 ft 128 kts 193°
2026-05-09 16:05 33.41175 -118.40456 1954 ft 130 kts 253°
2026-05-09 16:05 33.40664 -118.41307 1595 ft 115 kts 234°
2026-05-09 16:05 33.40266 -118.42008 1776 ft 111 kts 231°
2026-05-09 16:06 33.39706 -118.42860 2174 ft 146 kts 227°
2026-05-09 16:06 33.39595 -118.43934 2474 ft 144 kts 307°
2026-05-09 16:06 33.40474 -118.44222 2768 ft 130 kts 15°
2026-05-09 16:06 33.41114 -118.43519 2850 ft 126 kts 45°
2026-05-09 16:07 33.41641 -118.42684 2933 ft 118 kts 46°
2026-05-09 16:07 33.42193 -118.41978 2774 ft 113 kts 37°
2026-05-09 16:07 33.42316 -118.41166 2473 ft 108 kts 98°
2026-05-09 16:07 33.41897 -118.40469 2163 ft 99 kts 138°
2026-05-09 16:08 33.41264 -118.40393 1975 ft 94 kts 205°
2026-05-09 16:08 33.40820 -118.41020 1625 ft 103 kts 232°
2026-05-09 16:08 33.40463 -118.41649 1584 ft 71 kts 233°